EW4784 Weather Reports


Display with metric or nautical units.
time (UTC)temp
F
wind
direction
speed
MPH
gust
MPH
rain 1hr
in
rain 24hr
in
rain mn
in
humidity
%
barometer
mb
20260503200412 65 265 19.0 45.0 0.00 0.00 0.00 36
20260503195932 65 262 15.0 31.0 0.00 0.00 0.00 36
20260503195410 65 258 17.0 40.0 0.00 0.00 0.00 35
20260503194909 65 279 14.0 37.0 0.00 0.00 0.00 35
20260503194409 65 275 17.0 39.0 0.00 0.00 0.00 35
20260503193907 65 275 14.0 35.0 0.00 0.00 0.00 35
20260503193427 65 284 11.0 26.0 0.00 0.00 0.00 36
20260503192906 64 270 16.0 34.0 0.00 0.00 0.00 35
20260503192425 65 254 14.0 38.0 0.00 0.00 0.00 35
20260503191904 64 259 11.0 31.0 0.00 0.00 0.00 36
20260503191402 64 286 19.0 40.0 0.00 0.00 0.00 34
20260503190901 65 278 19.0 44.0 0.00 0.00 0.00 34
20260503190400 64 280 18.0 35.0 0.00 0.00 0.00 35
20260503185859 65 282 16.0 36.0 0.00 0.00 0.00 34
20260503185418 65 269 17.0 39.0 0.00 0.00 0.00 35
20260503184857 65 271 13.0 39.0 0.00 0.00 0.00 37
20260503184357 64 282 15.0 31.0 0.00 0.00 0.00 36
20260503183856 64 266 18.0 38.0 0.00 0.00 0.00 37
20260503183354 64 266 14.0 32.0 0.00 0.00 0.00 37
20260503182853 62 246 15.0 33.0 0.00 0.00 0.00 38
20260503182352 62 256 17.0 35.0 0.00 0.00 0.00 37
20260503181913 63 277 16.0 32.0 0.00 0.00 0.00 36
20260503181350 64 280 13.0 29.0 0.00 0.00 0.00 37
20260503180849 63 273 11.0 22.0 0.00 0.00 0.00 39
20260503180348 61 283 9.0 26.0 0.00 0.00 0.00 40
20260503175847 61 288 13.0 30.0 0.00 0.00 0.00 38
20260503175346 63 269 10.0 25.0 0.00 0.00 0.00 37
20260503174906 63 267 11.0 33.0 0.00 0.00 0.00 39
20260503174344 63 294 9.0 22.0 0.00 0.00 0.00 38
20260503173843 63 287 14.0 38.0 0.00 0.00 0.00 38
20260503173342 63 300 15.0 36.0 0.00 0.00 0.00 38
20260503172840 62 270 13.0 27.0 0.00 0.00 0.00 39
20260503172339 62 270 14.0 27.0 0.00 0.00 0.00 38
20260503171838 62 269 14.0 37.0 0.00 0.00 0.00 39
20260503171338 61 262 10.0 31.0 0.00 0.00 0.00 40
20260503170858 60 282 15.0 36.0 0.00 0.00 0.00 39
20260503170336 61 257 9.0 29.0 0.00 0.00 0.00 40
20260503150813 58 288 16.0 34.0 0.00 0.00 0.00 39
20260503150312 58 309 13.0 29.0 0.00 0.00 0.00 40
20260503140300 56 287 15.0 34.0 0.00 0.00 0.00 43
20260503131310 50 282 10.0 25.0 0.00 0.00 0.00 49
20260503130748 50 284 8.0 20.0 0.00 0.00 0.00 50
20260503130247 50 290 11.0 24.0 0.00 0.00 0.00 50
20260503110724 41 266 6.0 16.0 0.00 0.00 0.00 58
20260503110223 41 264 5.0 14.0 0.00 0.00 0.00 58
20260503100211 36 277 1.0 5.0 0.00 0.00 0.00 65
20260503090159 35 278 1.0 8.0 0.00 0.00 0.00 68
20260503081149 36 295 1.0 9.0 0.00 0.00 0.00 69
20260503080648 36 273 0.0 3.0 0.00 0.00 0.00 69
20260503080147 35 275 0.0 5.0 0.00 0.00 0.00 70
20260503072640 35 291 0.0 4.0 0.00 0.00 0.00 73
20260503072139 35 280 1.0 6.0 0.00 0.00 0.00 72
20260503071637 35 289 0.0 5.0 0.00 0.00 0.00 72
20260503071137 35 286 1.0 6.0 0.00 0.00 0.00 72
20260503070636 35 280 0.0 3.0 0.00 0.00 0.00 71
20260503070134 35 282 0.0 4.0 0.00 0.00 0.00 72
20260503060123 37 285 1.0 5.0 0.00 0.00 0.00 68
20260503055121 37 262 1.0 6.0 0.00 0.00 0.00 67
20260503054641 37 278 0.0 5.0 0.00 0.00 0.00 66
20260503054118 38 280 0.0 5.0 0.00 0.00 0.00 66
20260503053617 38 276 1.0 7.0 0.00 0.00 0.00 66
20260503053116 38 280 2.0 12.0 0.00 0.00 0.00 66
20260503052616 38 279 2.0 6.0 0.00 0.00 0.00 66
20260503052135 38 287 0.0 7.0 0.00 0.00 0.00 66
20260503051614 38 252 0.0 4.0 0.00 0.00 0.00 66
20260503051134 38 279 1.0 8.0 0.00 0.00 0.00 65
20260503050612 38 266 1.0 5.0 0.00 0.00 0.00 65
20260503050110 38 284 1.0 7.0 0.00 0.00 0.00 65
20260503045630 38 273 1.0 8.0 0.00 0.00 0.00 64
20260503045108 38 281 1.0 4.0 0.00 0.00 0.00 65
20260503044608 39 267 1.0 7.0 0.00 0.00 0.00 64
20260503044106 38 272 1.0 10.0 0.00 0.00 0.00 65
20260503043606 39 261 2.0 10.0 0.00 0.00 0.00 65
20260503043105 39 271 1.0 7.0 0.00 0.00 0.00 65
20260503042604 39 266 3.0 13.0 0.00 0.00 0.00 66
20260503042103 38 258 1.0 6.0 0.00 0.00 0.00 66
20260503041601 38 260 2.0 10.0 0.00 0.00 0.00 68
20260503041100 38 263 2.0 9.0 0.00 0.00 0.00 69
20260503040600 38 266 1.0 4.0 0.00 0.00 0.00 68
20260503040059 38 260 1.0 7.0 0.00 0.00 0.00 68
20260503035558 38 245 0.0 2.0 0.00 0.00 0.00 68
20260503035056 38 249 1.0 6.0 0.00 0.00 0.00 69
20260503034556 39 247 1.0 5.0 0.00 0.00 0.00 68
20260503034054 39 255 1.0 7.0 0.00 0.00 0.00 68
20260503033554 38 245 0.0 3.0 0.00 0.00 0.00 69
20260503033052 39 245 0.0 1.0 0.00 0.00 0.00 68
20260503032551 39 247 0.0 2.0 0.00 0.00 0.00 68
20260503032050 39 251 0.0 3.0 0.00 0.00 0.00 67
20260503031550 39 251 0.0 0.0 0.00 0.00 0.00 67
20260503031048 39 251 0.0 2.0 0.00 0.00 0.00 66
20260503030547 39 253 0.0 3.0 0.00 0.00 0.00 66
20260503030046 39 252 0.0 1.0 0.00 0.00 0.00 66
20260503025545 39 253 0.0 0.0 0.00 0.00 0.00 64
20260503025044 40 253 0.0 0.0 0.00 0.00 0.00 64
20260503024543 40 254 0.0 2.0 0.00 0.00 0.00 63
20260503024042 40 257 0.0 3.0 0.00 0.00 0.00 62
20260503023602 40 262 0.0 6.0 0.00 0.00 0.00 61
20260503023041 40 236 0.0 4.0 0.00 0.00 0.00 62
20260503022539 40 250 0.0 1.0 0.00 0.00 0.00 62
20260503022038 40 246 0.0 0.0 0.00 0.00 0.00 61
20260503021538 40 245 0.0 0.0 0.00 0.00 0.00 61
20260503021057 40 249 0.0 3.0 0.00 0.00 0.00 63
20260503020536 40 244 0.0 3.0 0.00 0.00 0.00 62
20260503020034 40 244 0.0 0.0 0.00 0.00 0.00 61
20260503015533 40 244 0.0 0.0 0.00 0.00 0.00 61
20260503015032 40 247 0.0 0.0 0.00 0.00 0.00 61
20260503014531 41 251 0.0 1.0 0.00 0.00 0.00 60
20260503014030 41 252 0.0 0.0 0.00 0.00 0.00 59
20260503013550 41 251 0.0 0.0 0.00 0.00 0.00 56
20260503013028 42 251 0.0 0.0 0.00 0.00 0.00 56
20260503012527 42 251 0.0 0.0 0.00 0.00 0.00 56
20260503012026 42 252 0.0 3.0 0.00 0.00 0.00 55
20260503011525 42 253 0.0 0.0 0.00 0.00 0.00 54
20260503011024 43 252 0.0 0.0 0.00 0.00 0.00 53
20260503010523 43 252 0.0 0.0 0.00 0.00 0.00 52
20260503010022 44 252 0.0 0.0 0.00 0.00 0.00 51
20260503005522 44 253 0.0 0.0 0.00 0.00 0.00 49
20260503005020 44 256 0.0 2.0 0.00 0.00 0.00 49
20260503004540 45 253 2.0 9.0 0.00 0.00 0.00 48
20260503004017 45 278 3.0 8.0 0.00 0.00 0.00 48
20260503003538 45 260 1.0 5.0 0.00 0.00 0.00 48
20260503003016 45 292 1.0 4.0 0.00 0.00 0.00 47
20260503002515 45 280 3.0 13.0 0.00 0.00 0.00 47
20260503002015 46 273 2.0 9.0 0.00 0.00 0.00 47
20260503001513 46 324 4.0 13.0 0.00 0.00 0.00 46
20260503001012 46 311 3.0 11.0 0.00 0.00 0.00 47
20260503000511 46 261 2.0 9.0 0.00 0.00 0.00 47
20260503000010 46 290 3.0 12.0 0.00 0.00 0.00 47
20260502235529 46 312 3.0 11.0 0.00 0.00 0.00 47
20260502235008 46 345 1.0 5.0 0.00 0.00 0.00 47
20260502234527 46 355 4.0 10.0 0.00 0.00 0.00 46
20260502234006 46 8 5.0 10.0 0.00 0.00 0.00 46
20260502233505 47 357 3.0 8.0 0.00 0.00 0.00 45
20260502233004 47 343 6.0 16.0 0.00 0.00 0.00 45
20260502232503 47 348 5.0 11.0 0.00 0.00 0.00 45
20260502232023 47 311 4.0 9.0 0.00 0.00 0.00 45
20260502231502 47 358 4.0 10.0 0.00 0.00 0.00 47
20260502230959 47 1 7.0 15.0 0.00 0.00 0.00 47
20260502230519 47 345 8.0 21.0 0.00 0.00 0.00 45
20260502225958 48 305 9.0 16.0 0.00 0.00 0.00 44
20260502225457 49 321 8.0 14.0 0.00 0.00 0.00 41
20260502225016 51 313 8.0 15.0 0.00 0.00 0.00 41
20260502224455 50 305 6.0 15.0 0.00 0.00 0.00 43
20260502224015 48 5 8.0 15.0 0.00 0.00 0.00 44
20260502223453 48 7 10.0 15.0 0.00 0.00 0.00 44
20260502222952 48 353 9.0 18.0 0.00 0.00 0.00 44
20260502222451 48 350 9.0 17.0 0.00 0.00 0.00 44
20260502221950 48 312 4.0 13.0 0.00 0.00 0.00 44
20260502221449 49 331 7.0 14.0 0.00 0.00 0.00 45
20260502220948 49 330 9.0 23.0 0.00 0.00 0.00 43
20260502220446 49 348 6.0 15.0 0.00 0.00 0.00 43
20260502215946 49 329 7.0 16.0 0.00 0.00 0.00 42
20260502215506 50 338 10.0 20.0 0.00 0.00 0.00 42
20260502214944 49 342 11.0 19.0 0.00 0.00 0.00 42
20260502214443 47 349 10.0 21.0 0.00 0.00 0.00 44
20260502213941 48 348 13.0 22.0 0.00 0.00 0.00 45
20260502213441 48 344 9.0 15.0 0.00 0.00 0.00 44
20260502212940 48 325 7.0 15.0 0.00 0.00 0.00 44
20260502212459 48 351 8.0 15.0 0.00 0.00 0.00 45
20260502211938 47 354 13.0 22.0 0.00 0.00 0.00 45
20260502211458 47 324 11.0 23.0 0.00 0.00 0.00 44
20260502210935 48 317 10.0 24.0 0.00 0.00 0.00 44
20260502210435 47 340 8.0 23.0 0.00 0.00 0.00 45
20260502210025 47 343 10.0 17.0 0.00 0.00 0.00 46
20260502205954 47 343 10.0 17.0 0.00 0.00 0.00 46
20260502205433 47 356 12.0 22.0 0.00 0.00 0.00 46
20260502204932 47 326 11.0 20.0 0.00 0.00 0.00 45
20260502204430 47 327 6.0 14.0 0.00 0.00 0.00 45
20260502203930 48 318 10.0 24.0 0.00 0.00 0.00 43
20260502203429 49 335 6.0 15.0 0.00 0.00 0.00 44
20260502202949 48 347 7.0 14.0 0.00 0.00 0.00 44
20260502202427 48 339 10.0 20.0 0.00 0.00 0.00 44
20260502201925 47 323 11.0 21.0 0.00 0.00 0.00 46
20260502201425 47 336 8.0 23.0 0.00 0.00 0.00 47
20260502200924 47 318 12.0 26.0 0.00 0.00 0.00 46